Location: Northcutt
(34.7304°N, 84.4305°W)
Time: 04:05:54
(UTC+00:00)

Vanguard 2 - Pass Details

Date: 12 October 2022
Orbit: 553 x 2933 km, 32.9° (Epoch: 05 December)

Event Time Altitude Azimuth Distance (km) Brightness Sun altitude
Rises 19:22:20 0° 277° (W) 4,378 11.7 39.3°
Reaches altitude 10° 19:24:48 10° 275° (W) 3,661 11.5 39.0°
Maximum altitude 19:34:51 72° 194° (SSW) 2,198 10.9 37.6°
Drops below altitude 10° 19:50:52 10° 114° (ESE) 5,565 11.8 35.3°
Sets 19:55:36 0° 113° (ESE) 6,718 12.1 34.6°
